Location: DaltonSkyGazer Observatory
(42.4858°N, 73.1565°W)
Time: 11:14:48
(UTC-05:00)

Daily predictions for brighter satellites

Satellite Brightness Start Highest point End
(mag) Time Altitude Azimuth Time Altitude Azimuth Time Altitude Azimuth
Cosmos 1844 4.1 17:12:11 10° NNW 17:17:58 76° WSW 17:23:45 10° SSE
Cosmos 2279 Rocket 4.4 17:13:15 10° N 17:19:03 39° ENE 17:24:50 10° SE
Cosmos 2228 Rocket 3.5 17:17:37 10° NNW 17:22:02 70° W 17:26:27 10° S
Cosmos 2237 Rocket 2.2 17:23:28 10° SSW 17:29:02 70° ESE 17:34:40 10° NNE
Cosmos 1328 Rocket 4.3 17:25:04 10° NNW 17:29:27 60° W 17:33:50 10° S
CZ-2C R/B 2.8 17:24:53 10° S 17:29:50 70° WSW 17:34:38 10° NNW
Cosmos 1743 Rocket 4.1 17:25:27 10° SSW 17:29:54 67° W 17:34:23 10° N
CENTAUR R/B 3.6 17:24:37 10° WSW 17:30:31 44° NW 17:37:11 10° NNE
Cosmos 1151 Rocket 2.9 17:29:20 10° N 17:33:37 75° E 17:37:54 10° SSE
Transit 2A Rocket 4.4 17:30:03 10° NNW 17:34:24 69° ENE 17:38:41 10° SE
Cosmos 1300 2.6 17:31:16 10° N 17:35:07 73° E 17:38:56 10° SSE
COSMOS 2428 4.1 17:31:31 10° SW 17:36:47 37° WNW 17:42:04 10° N
SL-16 R/B 2.9 17:31:47 10° SSE 17:36:50 35° ESE 17:41:54 10° NE
Cosmos 1125 Rocket 3.7 17:34:18 10° NNW 17:39:30 77° WSW 17:44:41 10° SSE
Lacrosse 4 Rocket 3.0 17:37:43 10° N 17:40:10 15° NE 17:42:01 12° ENE
Cosmos 44 3.6 17:35:40 10° SW 17:40:56 78° WNW 17:45:58 10° NNE
COSMOS 2441 4.4 17:36:13 10° SSE 17:41:04 85° ENE 17:45:55 10° NNW
Cosmos 1515 Rocket 4.2 17:36:50 10° NNW 17:41:14 61° W 17:45:35 10° S
SL-14 R/B 3.2 17:40:10 10° S 17:44:05 80° E 17:48:06 10° N
Cosmos 1340 Rocket 3.0 17:41:39 10° SSE 17:45:25 46° E 17:49:12 10° NNE
Cosmos 1484 Rocket 2.7 17:42:51 10° SSE 17:46:47 75° ENE 17:50:47 10° N
ALOS 3.7 17:44:16 10° ESE 17:47:13 17° ENE 17:50:09 10° NNE
Cosmos 2297 3.8 17:42:39 10° NNW 17:48:15 54° ENE 17:53:51 10° SE
Cosmos 1805 Rocket 4.1 17:44:21 10° SSE 17:48:29 39° E 17:52:38 10° NNE
SKYMED 2 3.6 17:44:48 10° NNE 17:49:06 57° E 17:53:21 10° S
Meteor 2-10 3.9 17:46:02 10° N 17:51:10 73° E 17:56:24 10° SSE
Thor Agena Rocket 3.9 17:47:15 10° N 17:52:29 70° WNW 17:57:36 10° SSW
Cosmos 1184 Rocket 4.3 17:51:06 10° SE 17:53:34 19° E 17:54:19 18° ENE
Iridium 4 Rocket 4.4 17:53:52 10° SE 17:56:57 19° E 17:58:22 16° ENE
Cosmos 2058 2.8 17:54:18 10° S 17:58:24 86° E 18:02:31 10° N
Meteor 1-28 Rocket 3.3 17:56:19 10° NNE 17:59:56 49° E 18:03:33 10° S
Cosmos 1538 Rocket 4.4 17:56:11 10° S 18:01:11 44° ESE 18:06:16 10° NNE
Cosmos 1461 2.9 17:57:25 10° SSW 18:01:32 59° ESE 18:04:38 16° NE
Sich 1 3.6 17:59:42 10° SSE 18:03:46 37° E 18:07:51 10° NNE
FENGYUN 3A 4.4 18:04:52 10° SE 18:09:26 29° ENE 18:14:02 10° N
METEOR-M 4.2 18:06:55 10° SSE 18:12:08 56° ENE 18:17:23 10° N
Cosmos 1633 Rocket 3.5 18:08:30 10° SSE 18:12:37 40° E 18:16:41 10° NNE
Aureole 1 Rocket 4.2 18:12:14 10° SSE 18:17:18 42° E 18:23:49 10° NNE
Abrixas 3.1 18:15:44 10° W 18:18:35 45° NNW 18:19:25 34° NNE
Cosmos 1356 Rocket 3.2 18:15:21 10° S 18:19:16 62° E 18:23:02 11° NNE
ATLAS 5 CENTAUR R/B 4.0 18:20:08 10° N 18:23:08 14° NNE 18:23:48 14° NNE
NOAA 12 4.0 18:19:22 10° SSE 18:24:35 78° ENE 18:29:52 10° N
Lacrosse 5 rocket 3.0 18:22:10 10° WNW 18:25:35 32° SW 18:29:10 10° SSE
FREGAT/IRIS 2.5 18:24:24 10° SSE 18:27:24 60° ENE 18:30:26 10° N
H-2A ROCKET BODY 4.3 18:00:52 10° WSW 18:27:26 38° SSW 18:33:03 13° SE
Aureole 2 Rocket 4.2 18:24:33 10° SW 18:28:06 37° WNW 18:31:55 10° N
BREEZE-M DEB (TANK) 1.9 18:30:34 10° WSW 18:32:53 74° NNW 18:33:02 69° NNE
Cosmos 1626 2.2 18:30:54 10° S 18:34:38 78° W 18:38:09 12° N
Cosmos 1707 Rocket 3.7 18:32:22 10° NNW 18:36:42 72° W 18:41:01 10° S
Cosmos 2219 Rocket 4.2 18:32:21 10° WSW 18:36:47 23° NW 18:41:13 10° N
COSMO-SKYMED 1 3.8 18:32:57 10° N 18:37:04 42° WNW 18:41:10 10° SW
FengYun 1-2 T 4.2 18:32:59 10° SSE 18:38:24 55° ENE 18:43:46 10° N
Cosmos 773 Rocket 3.9 18:34:06 10° S 18:39:11 65° ESE 18:42:09 25° NNE
Cosmos 2333 Rocket 4.0 18:34:41 10° WSW 18:39:27 27° NW 18:44:16 10° N
BREEZE M DEB (TANK) 2.3 18:38:52 10° WNW 18:40:57 40° SW 18:40:57 40° SW
Cosmos 1603 4.0 18:36:10 10° S 18:41:25 43° ESE 18:42:36 38° ENE
Cosmos 1943 Rocket 4.2 18:38:45 10° NNE 18:39:28 12° NNE 18:39:28 12° NNE
USA 215 3.2 18:37:34 19° ESE 18:42:31 78° NE 18:49:05 10° NW
Cosmos 1666 Rocket 3.8 18:43:27 10° SSW 18:47:46 67° W 18:52:09 10° N
Orbus 7S? 4.4 18:44:04 10° NW 18:48:18 65° NE 18:53:53 23° ESE
CZ-4C R/B 4.2 18:45:43 10° NNW 18:50:12 18° NNE 18:50:36 18° NNE
Resurs 01 Rocket 1.5 18:49:20 39° SE 18:50:47 62° ENE 18:55:12 10° N
Cosmos 1455 2.7 18:47:18 10° NNW 18:51:03 60° W 18:54:49 10° S
SJ-6B 3.4 18:49:44 10° S 18:53:46 61° W 18:57:53 10° NNW
Lacrosse 5 3.7 18:55:53 10° NNW 18:59:05 17° N 18:59:05 17° N
Cosmos 1933 Rocket 4.4 18:54:57 10° S 18:57:42 36° SSE 18:57:42 36° SSE
Cosmos 1627 Rocket 4.5 18:53:22 10° SSE 18:59:22 54° E 19:02:02 32° NNE
Cosmos 2237 Rocket 4.4 19:09:35 10° W 19:13:40 20° NW 19:17:47 10° N
Cosmos 2369 Rocket 3.2 19:11:45 10° NNW 19:15:09 32° N 19:15:09 32° N
Lacrosse 4 Rocket 2.1 19:15:16 10° NW 19:18:28 48° WNW 19:18:28 48° WNW
Cosmos 1470 Rocket 4.4 19:16:23 10° SSW 19:19:23 43° SSW 19:19:23 43° SSW
SL-16 R/B 3.6 19:15:43 10° WSW 19:20:53 36° WNW 19:24:59 15° N
ALOS 2.8 19:19:37 10° S 19:24:11 56° W 19:28:48 10° NNW
Spot 2 Rocket 3.8 19:21:13 10° S 19:26:12 62° WSW 19:31:13 10° NNW
USA 229 DEB 3.7 19:20:39 10° SW 19:27:30 76° NW 19:29:44 46° NNE
USA 229 3.7 19:20:45 10° SW 19:27:37 76° NW 19:29:47 47° NNE
Cosmos 2026 Rocket 3.8 19:22:20 10° S 19:28:33 83° E 19:29:04 75° NE
ATLAS 5 CENTAUR R/B 4.2 20:03:33 10° NNW 20:05:22 20° NNW 20:05:22 20° NNW
CZ-4C R/B 4.5 20:33:29 10° NNW 20:35:48 22° NNW 20:35:48 22° NNW
